Weather History for Cook, MN

Change the Weather History Date:

Tuesday, January 22, 2013

  Actual Average Record
Temperature  
Mean Temperature -16 °F -  
Max Temperature -2 °F 15 °F 32 °F (2002)
Min Temperature -29 °F -1 °F -29 °F (2013)
Degree Days  
Heating Degree Days 80    
Moisture  
Dew Point -23 °F    
Average Humidity 71    
Maximum Humidity 84    
Minimum Humidity 55    
Precipitation  
Precipitation 0.00 in - - ()
Sea Level Pressure  
Sea Level Pressure 30.16 in    
Wind  
Wind Speed 2 mph (WSW)    
Max Wind Speed 9 mph    
Max Gust Speed -    
Visibility 10 miles    
Events      
Averages and records for this station are not official NWS values.
T = Trace of Precipitation, MM = Missing Value Source: NWS Daily Summary

Daily Weather History Graph

Daily Weather History Graph

Search for Another Location

Airport:

Trip Planner

Search our weather history database for the weather conditions in past years. The results will help you decide how hot, cold, wet, or windy it might be!

Date:

Astronomy

Jan. 22, 2013 Rise Set
Actual Time 7:49 AM CST 4:56 PM CST
Civil Twilight 7:14 AM CST 5:30 PM CST
Nautical Twilight 6:36 AM CST 6:08 PM CST
Astronomical Twilight 6:00 AM CST 6:45 PM CST
Moon 1:16 PM CST (1/22) 4:14 AM CST (1/22)
Length of Visible Light 10h 15m
Length of Day
9h 07m
Waxing Gibbous, 83% of the Moon is Illuminated
Jan 22
Waxing Gibbous
Jan 26
Full
Feb 3
Last Quarter
Feb 10
New
Feb 17
First Quarter

Hourly Weather History & Observations

Time (CST) Temp. Windchill Dew Point Humidity Pressure Visibility Wind Dir Wind Speed Gust Speed Precip Events Conditions
12:16 AM -23.8 °F - -29.2 °F 76% 30.16 in - Calm Calm - N/A   Clear
12:37 AM -23.8 °F -35.0 °F -29.2 °F 76% 30.16 in - West 3.5 mph - N/A   Clear
12:57 AM -25.6 °F -37.1 °F -29.2 °F 83% 30.16 in - West 3.5 mph - N/A   Clear
1:16 AM -25.6 °F - -31.0 °F 76% 30.16 in - Calm Calm - N/A   Clear
1:37 AM -25.6 °F -37.1 °F -29.2 °F 83% 30.18 in - West 3.5 mph - N/A   Clear
1:57 AM -25.6 °F - -31.0 °F 76% 30.18 in - Calm Calm - N/A   Clear
2:16 AM -25.6 °F - -31.0 °F 76% 30.18 in - Calm Calm - N/A   Clear
2:37 AM -25.6 °F - -31.0 °F 76% 30.19 in - Calm Calm - N/A   Clear
2:57 AM -25.6 °F - -31.0 °F 76% 30.18 in - Calm Calm - N/A   Clear
3:16 AM -25.6 °F - -32.8 °F 69% 30.18 in - Calm Calm - N/A   Clear
3:37 AM -27.4 °F - -32.8 °F 75% 30.19 in - Calm Calm - N/A   Clear
3:57 AM -27.4 °F - -32.8 °F 75% 30.19 in - Calm Calm - N/A   Clear
4:16 AM -29.2 °F - -34.6 °F 75% 30.20 in - Calm Calm - N/A   Clear
4:37 AM -29.2 °F - -34.6 °F 75% 30.19 in - Calm Calm - N/A   Clear
4:57 AM -27.4 °F - -34.6 °F 69% 30.19 in - Calm Calm - N/A   Clear
5:16 AM -27.4 °F - -34.6 °F 69% 30.20 in - Calm Calm - N/A   Clear
5:37 AM -27.4 °F - -34.6 °F 69% 30.21 in - Calm Calm - N/A   Clear
5:57 AM -29.2 °F - -34.6 °F 75% 30.21 in - Calm Calm - N/A   Clear
6:16 AM -27.4 °F - -34.6 °F 69% 30.21 in - Calm Calm - N/A   Clear
6:37 AM -27.4 °F - -34.6 °F 69% 30.21 in - Calm Calm - N/A   Clear
6:56 AM -27.4 °F - -34.6 °F 69% 30.20 in - Calm Calm - N/A   Clear
7:17 AM -29.2 °F - -36.4 °F 68% 30.20 in - Calm Calm - N/A   Clear
7:37 AM -29.2 °F - -36.4 °F 68% 30.20 in - Calm Calm - N/A   Clear
7:56 AM -29.2 °F - -36.4 °F 68% 30.20 in - Calm Calm - N/A   Clear
8:17 AM -29.2 °F - -36.4 °F 68% 30.21 in - Calm Calm - N/A   Clear
8:36 AM -25.6 °F - -32.8 °F 69% 30.21 in - Calm Calm - N/A   Clear
8:56 AM -25.6 °F - -31.0 °F 76% 30.22 in - Calm Calm - N/A   Clear
9:17 AM -23.8 °F - -27.4 °F 83% 30.22 in - Calm Calm - N/A   Clear
9:36 AM -20.2 °F - -25.6 °F 76% 30.22 in - Calm Calm - N/A   Clear
9:56 AM -20.2 °F -30.9 °F -25.6 °F 76% 30.22 in - West 3.5 mph - N/A   Clear
10:17 AM -18.4 °F - -23.8 °F 76% 30.22 in - Calm Calm - N/A   Clear
10:36 AM -16.6 °F -29.3 °F -20.2 °F 84% 30.22 in - WNW 4.6 mph - N/A   Clear
10:56 AM -14.8 °F -27.2 °F -20.2 °F 77% 30.22 in - WNW 4.6 mph - N/A   Clear
11:17 AM -14.8 °F -29.1 °F -20.2 °F 77% 30.22 in - West 5.8 mph - N/A   Clear
11:36 AM -13.0 °F -28.6 °F -18.4 °F 77% 30.21 in - West 6.9 mph - N/A   Clear
11:56 AM -11.2 °F -24.8 °F -18.4 °F 70% 30.20 in - West 5.8 mph - N/A   Clear
12:17 PM -9.4 °F -22.7 °F -18.4 °F 65% 30.19 in - West 5.8 mph - N/A   Clear
12:36 PM -9.4 °F -20.9 °F -18.4 °F 65% 30.19 in 10.0 mi West 4.6 mph - N/A   Clear
12:57 PM -7.6 °F -23.4 °F -16.6 °F 65% 30.19 in 10.0 mi West 8.1 mph - N/A   Clear
1:17 PM -7.6 °F -22.1 °F -16.6 °F 65% 30.18 in 10.0 mi West 6.9 mph - N/A   Clear
1:36 PM -5.8 °F -22.4 °F -16.6 °F 60% 30.17 in 10.0 mi West 9.2 mph - N/A   Clear
1:57 PM -5.8 °F -18.4 °F -16.6 °F 60% 30.17 in 10.0 mi West 5.8 mph - N/A   Clear
2:16 PM -5.8 °F -18.4 °F -14.8 °F 65% 30.16 in 10.0 mi West 5.8 mph - N/A   Clear
2:37 PM -4.0 °F -17.8 °F -14.8 °F 60% 30.16 in 10.0 mi West 6.9 mph - N/A   Clear
2:56 PM -4.0 °F -17.8 °F -14.8 °F 60% 30.17 in 10.0 mi West 6.9 mph - N/A   Clear
3:17 PM -2.2 °F -14.2 °F -14.8 °F 55% 30.16 in 10.0 mi West 5.8 mph - N/A   Clear
3:37 PM -2.2 °F -16.8 °F -13.0 °F 60% 30.15 in 10.0 mi West 8.1 mph - N/A   Clear
3:56 PM -2.2 °F -15.6 °F -13.0 °F 60% 30.15 in 10.0 mi West 6.9 mph - N/A   Clear
4:17 PM -2.2 °F -15.6 °F -13.0 °F 60% 30.15 in 10.0 mi WSW 6.9 mph - N/A   Clear
4:36 PM -2.2 °F -16.8 °F -13.0 °F 60% 30.15 in 10.0 mi WSW 8.1 mph - N/A   Clear
4:57 PM -2.2 °F -12.5 °F -13.0 °F 60% 30.14 in 10.0 mi SW 4.6 mph - N/A   Clear
5:17 PM -4.0 °F - -13.0 °F 65% 30.15 in 10.0 mi Calm Calm - N/A   Clear
5:36 PM -4.0 °F -14.6 °F -13.0 °F 65% 30.15 in 10.0 mi SW 4.6 mph - N/A   Clear
5:57 PM -5.8 °F -14.5 °F -13.0 °F 71% 30.14 in 10.0 mi SW 3.5 mph - N/A   Clear
6:17 PM -5.8 °F - -14.8 °F 65% 30.13 in 10.0 mi Calm Calm - N/A   Clear
6:37 PM -5.8 °F - -14.8 °F 65% 30.13 in 10.0 mi Calm Calm - N/A   Clear
6:57 PM -7.6 °F - -14.8 °F 71% 30.12 in 10.0 mi Calm Calm - N/A   Clear
7:16 PM -7.6 °F - -14.8 °F 71% 30.12 in 10.0 mi Calm Calm - N/A   Clear
7:37 PM -9.4 °F -18.6 °F -14.8 °F 77% 30.11 in 10.0 mi SSW 3.5 mph - N/A   Clear
7:57 PM -9.4 °F - -16.6 °F 71% 30.10 in 10.0 mi Calm Calm - N/A   Clear
8:16 PM -9.4 °F - -16.6 °F 71% 30.10 in 10.0 mi Calm Calm - N/A   Clear
8:37 PM -9.4 °F -18.6 °F -16.6 °F 71% 30.10 in 10.0 mi SW 3.5 mph - N/A   Clear
8:57 PM -9.4 °F -18.6 °F -16.6 °F 71% 30.09 in 10.0 mi SSW 3.5 mph - N/A   Clear
9:17 PM -9.4 °F -18.6 °F -14.8 °F 77% 30.10 in 10.0 mi SW 3.5 mph - N/A   Clear
9:37 PM -9.4 °F - -16.6 °F 71% 30.10 in 10.0 mi Calm Calm - N/A   Clear
9:56 PM -9.4 °F -18.6 °F -16.6 °F 71% 30.10 in 10.0 mi SW 3.5 mph - N/A   Clear
10:17 PM -9.4 °F -20.9 °F -16.6 °F 71% 30.10 in 10.0 mi SW 4.6 mph - N/A   Clear
10:37 PM -11.2 °F -23.0 °F -16.6 °F 77% 30.10 in 10.0 mi WSW 4.6 mph - N/A   Clear
10:56 PM -9.4 °F -18.6 °F -16.6 °F 71% 30.09 in 10.0 mi SW 3.5 mph - N/A   Clear
11:17 PM -11.2 °F - -16.6 °F 77% 30.08 in 10.0 mi Calm Calm - N/A   Clear
11:37 PM -11.2 °F - -16.6 °F 77% 30.08 in 10.0 mi Calm Calm - N/A   Clear
11:56 PM -11.2 °F - -16.6 °F 77% 30.08 in 10.0 mi Calm Calm - N/A   Clear